Regional Weather Roundup
Issued by NWS

Home | Current Version | Previous Version | Text Only | Print | Product List | Glossary Off
Versions: 1 2 3 4 5 6 7 8 9 10 11 12 13 14 15 16 17 18 19 20 21 22 23 24 25 26 27 28 29 30 31 32 33 34 35 36 37 38 39 40 41 42 43 44 45 46 47 48 49 50

000
ASUS43 KMPX 220610
RWRMN
WEATHER ROUNDUP FOR MINNESOTA
NATIONAL WEATHER SERVICE TWIN CITIES/CHANHASSEN MN
100 AM CDT SAT JUL 22 2017


NOTE: "FAIR" INDICATES FEW OR NO CLOUDS BELOW 12,000 FEET WITH NO
SIGNIFICANT WEATHER AND/OR OBSTRUCTIONS TO VISIBILITY. N/A MEANS
CURRENT SKY AND/OR WEATHER CONDITIONS ARE NOT AVAILABLE.

MNZ060>063-068>070-220700-
   Twin Cities Metro

CITY           SKY/WX    TMP DP  RH WIND       PRES   REMARKS
TWIN CITIES    CLOUDY    72  64  76 NE7       29.82F
6HR MIN TEMP:  72; 6HR MAX TEMP:  82;

ST PAUL        CLOUDY    71  66  84 N6        29.83F
CRYSTAL        PTCLDY    71  62  73 SE12      29.76F
BLAINE         PTCLDY    70  66  88 SE12      29.77F
LAKEVILLE      PTCLDY    70  70 100 E7        29.83F
EDEN PRAIRIE   CLOUDY    74  65  73 VRB6      29.81F
6HR MIN TEMP:  74; 6HR MAX TEMP:  82;

SOUTH ST PAUL  CLOUDY    73  64  73 N7        29.83F
LAKE ELMO      FAIR      70  63  78 N5        29.85F
$$
MNZ001>005-007-008-013>017-022>024-027-028-220700-
   Northwest Minnesota

CITY           SKY/WX    TMP DP  RH WIND       PRES   REMARKS
BEMIDJI        FOG       62  61  99 E3        29.78S VSB 1
HALLOCK        CLOUDY    64  63  94 CALM      29.77S
ROSEAU         CLOUDY    64  59  82 CALM      29.79F
WARROAD        PTCLDY    64  61  88 SE7       29.80F
THIEF RVR FALL CLOUDY    65  64  97 E5        29.77F
CROOKSTON      CLOUDY    68  66  94 CALM      29.75F
FOSSTON        CLOUDY    61  61 100 CALM      29.78S
DETROIT LAKES  CLOUDY    68  66  94 S3        29.81R
MOORHEAD       CLOUDY    72  66  83 S6        29.78S
PARK RAPIDS    PTCLDY    65  62  90 SW5       29.79S
MAHNOMEN       FAIR      65  64  94 S5        29.77S
$$
MNZ006-009>011-018-025>026-220700-
   North Central Minnesota

CITY           SKY/WX    TMP DP  RH WIND       PRES   REMARKS
BAUDETTE       CLOUDY    59  59 100 E6        29.80F
FLAG ISLAND    CLOUDY    66  57  72 E6        29.80F
INTL FALLS     CLOUDY    56  54  93 CALM      29.82F FOG
6HR MIN TEMP:  54; 6HR MAX TEMP:  71;

BIG FORK       CLOUDY    61  61 100 CALM      29.82F
LONGVILLE      CLOUDY    64  63  94 CALM      29.80R
GRAND RAPIDS   CLOUDY    64  63  96 E5        29.83F
CRANE LAKE     CLOUDY    55  55 100 CALM      29.85F FOG
ORR            CLOUDY    57  55  94 CALM      29.82F
COOK           CLOUDY    57  57 100 CALM      29.84F
WALKER         FAIR      61  61  99 E3        29.78S
$$
MNZ012-019>021-037-220700-
   Northeast Minnesota

CITY           SKY/WX    TMP DP  RH WIND       PRES   REMARKS
DULUTH         PTCLDY    60  60 100 NW3       29.82S
6HR MIN TEMP:  59; 6HR MAX TEMP:  70; 6HR PCP:  1.34;

ELY            PTCLDY    59  55  88 CALM      29.84F
HIBBING        CLOUDY    56  56 100 CALM      29.83F FOG
EVELETH        MOCLDY    60  57  91 CALM      29.84F FOG
DULUTH HARBOR  CLOUDY    64  63  94 CALM      29.80F
TWO HARBORS    PTCLDY    63  57  82 CALM      29.79F
SILVER BAY     CLOUDY    59  57  94 CALM      29.79F
GRAND MARAIS     N/A     66  55  67 NE7       29.80F
G MARAIS ARPRT PTCLDY    59  48  67 N7        29.86F
$$
MNZ029>031-032-039>041-046>048-054>057-064-220700-
   West Central Minnesota

CITY           SKY/WX    TMP DP  RH WIND       PRES   REMARKS
FERGUS FALLS   CLOUDY    70  66  88 NE3       29.80R
WHEATON        CLOUDY    70  66  88 CALM      29.81R
MORRIS         CLOUDY    70  66  88 S7        29.77F
ALEXANDRIA     CLOUDY    68  67  96 NE5       29.82R
ELBOW LAKE     FAIR      67  65  96 E6        29.81R
WADENA         MOCLDY    64  64 100 SW6       29.80R
GLENWOOD       CLOUDY    68  66  94 SE3       29.82R
APPLETON       LGT RAIN  73  66  78 SE7       29.80R
BENSON         LGT RAIN  72  66  83 S5        29.82R
ORTONVILLE     TSTM      72  64  78 SE13G18   29.76F
MADISON        CLOUDY    79  70  73 SE9       29.82R THUNDER
WILLMAR        FAIR      72  70  94 SE5       29.80S
$$
MNZ033>034-036-042>043-049>051-058-059-220700-
   Central Minnesota

CITY           SKY/WX    TMP DP  RH WIND       PRES   REMARKS
ST CLOUD       MOCLDY    66  66 100 NE3       29.78S
6HR MIN TEMP:  66; 6HR MAX TEMP:  80; 6HR PCP:  0.65;

SAUK CENTRE    FAIR      66  65  97 CALM      29.81R
PAYNESVILLE    CLOUDY    73  69  87 CALM      29.80F
AITKIN         CLOUDY    63  61  94 CALM      29.80R FOG
PINE RIVER     MOCLDY    63  63 100 CALM      29.82S
BRAINERD       CLOUDY    66  65  96 S5        29.79S
STAPLES        MOCLDY    64  64 100 CALM      29.79F
LONG PRAIRIE   FAIR      64  64 100 CALM      29.82S
LITTLE FALLS   MOCLDY    64  63  94 W3        29.81S
LITCHFIELD     CLOUDY    72  68  88 E9        29.80F
BUFFALO        CLOUDY    69  63  79 S8        29.78F
MAPLE LAKE     MOCLDY    69  66  92 S5        29.79F
HUTCHINSON     CLOUDY    73  69  88 E14       29.78F
$$
MNZ037-044-045-052-053-220700-
   East Central Minnesota

CITY           SKY/WX    TMP DP  RH WIND       PRES   REMARKS
PRINCETON      MOCLDY    66  64  94 W3        29.77R
MORA           MOCLDY    64  64 100 CALM      29.78F
CAMBRIDGE      CLOUDY    68  64  88 W7        29.73F
RUSH CITY      MOCLDY    66  63  90 SW6G24    29.73F
MOOSE LAKE     CLOUDY    63  61  94 CALM      29.79S
HINCKLEY       FAIR      64  64 100 CALM      29.78F
CLOQUET        CLOUDY    63  59  88 CALM      29.81S
MCGREGOR       MOCLDY    63  63 100 CALM      29.82R
$$
MNZ071>073-080-081-089-090-097-098-220700-
   Southwest Minnesota

CITY           SKY/WX    TMP DP  RH WIND       PRES   REMARKS
MONTEVIDEO     CLOUDY    73  68  83 S5        29.81S
GRANITE FALLS  CLOUDY    74  69  86 SE5       29.83S
CANBY          CLOUDY    74  70  89 CALM      29.84R
MARSHALL       CLOUDY    72  69  90 SE9       29.82R
REDWOOD FALLS  MOCLDY    73  67  81 E10       29.79F
OLIVIA         CLOUDY    72  68  88 SE6       29.77F
PIPESTONE      CLOUDY    73  70  88 SE7       29.82R
WINDOM         CLEAR     70  68  94 NE7       29.82S
WORTHINGTON    CLOUDY    72  71  97 E6        29.83S
JACKSON        CLOUDY    72  70  94 CALM      29.81F
SLAYTON        PTCLDY    69  66  89 E6        29.82F
$$
MNZ065>067-074>077-082>085-091>093-220700-
   South Central Minnesota

CITY           SKY/WX    TMP DP  RH WIND       PRES   REMARKS
MANKATO        CLEAR     71  68  90 E8        29.81F
NEW ULM        PTCLDY    72  66  83 E8        29.81F
ST JAMES       CLEAR     70  68  94 NE5       29.81F
FAIRMONT       CLOUDY    72  71  97 NE8       29.80S
GLENCOE        CLOUDY    73  71  94 E6        29.80F
FARIBAULT      PTCLDY    70  68  94 NE6       29.85R
OWATONNA       CLEAR     70  66  88 NE12      29.84R
WASECA         CLEAR     70  68  94 E7        29.84R
ALBERT LEA     CLOUDY    70  66  88 E13       29.83R
$$
MNZ078>079-086>088-094>096-220700-
   Southeast Minnesota

CITY           SKY/WX    TMP DP  RH WIND       PRES   REMARKS
ROCHESTER      CLOUDY    68  68 100 E13       29.85R
6HR MIN TEMP:  68; 6HR MAX TEMP:  74;

RED WING       CLEAR     72  64  78 CALM      29.83S
STANTON        CLEAR     70  67  90 NE6       29.83R
DODGE CENTER   MOCLDY    68  66  94 NE9G16    29.86R
WINONA         CLOUDY    70  68  94 NE5       29.87R
AUSTIN         CLOUDY    70  66  88 E14       29.83R
PRESTON        FOG       68  66  94 NE8       29.85S VSB 1
$$
ABBREVIATIONS USED IN REMARKS
   TC - TEMPERATURES IN CELSIUS
  WCI - WIND CHILL INDEX
   HX - HEAT INDEX
  VSB - VISIBILITY
$$



USA.gov is the U.S. government's official web portal to all federal, state and local government web resources and services.